Regional Weather Roundup
Issued by NWS

Home | Current Version | Previous Version | Text Only | Print | Product List | Glossary Off
Versions: 1 2 3 4 5 6 7 8 9 10 11 12 13 14 15 16 17 18 19 20 21 22 23 24 25 26 27 28 29 30 31 32 33 34 35 36 37 38 39 40 41 42 43 44 45 46 47 48 49 50

000
ASUS43 KLSX 201159
RWRMO

WEATHER SUMMARY FOR MISSOURI
NATIONAL WEATHER SERVICE SPRINGFIELD MO
700 AM CDT SAT SEP 20 2014

NOTE: "FAIR" INDICATES FEW OR NO CLOUDS BELOW 12,000 FEET WITH NO
       SIGNIFICANT WEATHER AND/OR OBSTRUCTIONS TO VISIBILITY.
       CURRENT SKY AND/OR WEATHER CONDITIONS ARE NOT AVAILABLE FOR
       CHILLICOTHE AND FARMINGTON.

MOZ001>031-035>038-043-044-053-054-201300-
...NORTHERN AND WESTERN MISSOURI...

CITY           SKY/WX    TMP DP  RH WIND       PRES   REMARKS
KANSAS CTY INT PTCLDY    67  66  97 SW7       29.97R FOG
6HR MIN TEMP:  67; 6HR MAX TEMP:  69;

KANSAS C DTWN  CLEAR     71  67  87 SW7       29.95R
6HR MIN TEMP:  70; 6HR MAX TEMP:  72;

LEE`S SUMMIT   CLEAR     68  66  93 SW12      29.97R FOG
6HR MIN TEMP:  67; 6HR MAX TEMP:  69;

ST JOSEPH      PTCLDY    66  65  96 SW5       29.96R FOG
6HR MIN TEMP:  65; 6HR MAX TEMP:  69;


$$
MOZ066>068-077>081-088>096-101>105-201300-
...SOUTHWEST MISSOURI...

CITY           SKY/WX    TMP DP  RH WIND       PRES   REMARKS
SPRINGFIELD    CLEAR     65  63  93 S8        30.03R
6HR MIN TEMP:  63; 6HR MAX TEMP:  67;

JOPLIN         CLEAR     67  66  97 S8        30.02R FOG
6HR MIN TEMP:  66; 6HR MAX TEMP:  69;


$$
MOZ032>034-039>042-045>050-055>058-069>072-201300-
...CENTRAL MISSOURI...

CITY           SKY/WX    TMP DP  RH WIND       PRES   REMARKS
COLUMBIA       CLEAR     62  61  96 S5        30.00R FOG
6HR MIN TEMP:  61; 6HR MAX TEMP:  63;

JEFFERSON CITY CLEAR     64  62  93 CALM      30.00R
6HR MIN TEMP:  60; 6HR MAX TEMP:  65;

ROLLA          CLEAR     64  62  93 S9        30.02R
6HR MIN TEMP:  63; 6HR MAX TEMP:  66;

SEDALIA        CLEAR     67  64  90 S9        30.00R FOG
6HR MIN TEMP:  66; 6HR MAX TEMP:  68;

OSAGE BEACH    CLEAR     63  59  88 S3        30.01R

$$
MOZ051-052-059>065-201300-
...EAST CENTRAL MISSOURI...

CITY           SKY/WX    TMP DP  RH WIND       PRES   REMARKS
ST LOUIS INTL  MOCLDY    65  60  84 S3        30.01R
6HR MIN TEMP:  65; 6HR MAX TEMP:  69;

SPIRIT OF STL  PTCLDY    56  55  97 CALM      30.00R
6HR MIN TEMP:  55; 6HR MAX TEMP:  58; 6HR PCP:  0.01;

ST CHARLES     CLEAR     56  55  97 NE5       30.00R FOG
6HR MIN TEMP:  55; 6HR MAX TEMP:  59;


$$
MOZ072>076-082>087-097>100-106>115-201300-
...SOUTH CENTRAL AND SOUTHEAST MISSOURI...

CITY           SKY/WX    TMP DP  RH WIND       PRES   REMARKS
CAPE GIRARDEAU FOG       57  56  96 CALM      30.06R VSB 1/2
6HR MIN TEMP:  56; 6HR MAX TEMP:  60;

FARMINGTON     CLEAR     61  59  94 CALM      30.07R
6HR MIN TEMP:  55; 6HR MAX TEMP:  61;

POPLAR BLUFF   CLEAR     58  55  90 CALM      30.05R FOG
6HR MIN TEMP:  58; 6HR MAX TEMP:  61;

WEST PLAINS    PTCLDY    59  57  93 CALM      30.08R FOG
6HR MIN TEMP:  59; 6HR MAX TEMP:  65;


$$



USA.gov is the U.S. government's official web portal to all federal, state and local government web resources and services.